This is the latest recevied weather packets stored in our database for station/object IK1PCD-11. If no packets are shown the sender has not sent any weather packets the latest 10 day(s).
| Time | Temp. | Humidity | Pressure | Rain* | Wind** | Luminosity | Snow |
|---|---|---|---|---|---|---|---|
| 1788009788 | 21.67° C | 100% | 1017.9 hPa | - | - | - | - |
| 1788008888 | 21.67° C | 100% | 1017.9 hPa | - | - | - | - |
| 1788007988 | 22.22° C | 100% | 1017.9 hPa | - | - | - | - |
| 1788007088 | 22.22° C | 100% | 1018 hPa | - | - | - | - |
| 1788006188 | 22.22° C | 100% | 1018.1 hPa | - | - | - | - |
| 1788005287 | 22.22° C | 100% | 1018.4 hPa | - | - | - | - |
| 1788004387 | 21.67° C | 100% | 1018.4 hPa | - | - | - | - |
| 1788000786 | 21.11° C | 100% | 1018.2 hPa | - | - | - | - |
| 1787999889 | 21.11° C | 100% | 1018.3 hPa | - | - | - | - |
| 1787998989 | 20.56° C | 100% | 1018.3 hPa | - | - | - | - |
| 1787998089 | 20.56° C | 100% | 1018.3 hPa | - | - | - | - |
| 1787997189 | 20° C | 100% | 1018.4 hPa | - | - | - | - |
| 1787996288 | 19.44° C | 100% | 1018.3 hPa | - | - | - | - |
| 1787993588 | 18.33° C | 100% | 1018.3 hPa | - | - | - | - |
| 1787992688 | 17.78° C | 100% | 1018.1 hPa | - | - | - | - |
| 1787991788 | 16.11° C | 100% | 1018.6 hPa | - | - | - | - |
| 1787990892 | 15.56° C | 100% | 1018.4 hPa | - | - | - | - |
| 1787989988 | 15° C | 100% | 1018.4 hPa | - | - | - | - |
| 1787989088 | 14.44° C | 100% | 1018.4 hPa | - | - | - | - |
| 1787988189 | 13.89° C | 100% | 1018.3 hPa | - | - | - | - |
| 1787987287 | 13.89° C | 100% | 1018.4 hPa | - | - | - | - |
| 1787986387 | 13.33° C | 100% | 1018.5 hPa | - | - | - | - |
| 1787985487 | 13.33° C | 100% | 1018.3 hPa | - | - | - | - |
| 1787984587 | 13.33° C | 100% | 1018.4 hPa | - | - | - | - |
| 1787983687 | 12.78° C | 100% | 1018.7 hPa | - | - | - | - |
* Rain since midnight (hover to see other rain measurements)
** Current wind speed in m/s (hover to see current wind gust speed)